This demonstration page uses our WeatherBlox Daily Observations layout. Learn more.

Left ArrowRight Arrow

Hourly Observations for January 22, 2022

Temp ( °F °C ) Dew Point ( °F °C ) Humidity (%) Winds ( mph kmh ) Pressure ( in mb ) Visibility ( mi km ) Precip ( " mm )
12:53 am 00:53 Clear 36 2.2 21 -6.1 55 55 ESE 16 26 30.16 1022 10 16 0.00 0.00
1:53 am 01:53 Clear 35 1.7 20 -6.7 54 54 ESE 15 24 30.16 1022 10 16 0.00 0.00
2:53 am 02:53 Clear 34 1.1 18 -7.8 52 52 ESE 13 20 30.18 1022 10 16 0.00 0.00
3:53 am 03:53 Clear 32 0 18 -7.8 56 56 ESE 13 20 30.19 1022 10 16 0.00 0.00
4:53 am 04:53 Clear 31 -0.6 17 -8.3 56 56 E 9 15 30.21 1023 10 16 0.00 0.00
5:53 am 05:53 Clear 29 -1.7 16 -8.9 58 58 ENE 10 17 30.24 1024 10 16 0.00 0.00
6:53 am 06:53 Clear 26 -3.3 15 -9.4 63 63 NE 8 13 30.29 1026 10 16 0.00 0.00
7:53 am 07:53 Sunny 25 -3.9 14 -10 63 63 NE 10 17 30.33 1027 10 16 0.00 0.00
8:53 am 08:53 Sunny 31 -0.6 14 -10 49 49 ENE 15 24 30.34 1027 10 16 0.00 0.00
9:53 am 09:53 Sunny 36 2.2 13 -10.6 39 39 E 10 17 30.36 1028 10 16 0.00 0.00
10:53 am 10:53 Sunny 40 4.4 11 -11.7 30 30 ESE 12 19 30.37 1028 10 16 0.00 0.00
11:53 am 11:53 Cloudy 40 4.4 12 -11.1 32 32 ESE 10 17 30.37 1029 10 16 0.00 0.00
12:21 pm 12:21 Cloudy 41 5 13 -10.6 32 32 ESE 14 22 30.42 1030 10 16 0.00 0.00
12:53 pm 12:53 Cloudy 41 5 12 -11.1 30 30 E 10 17 30.35 1028 10 16 0.00 0.00
1:31 pm 13:31 Cloudy 42 5.6 14 -10 32 32 E 9 15 30.37 1028 10 16 0.00 0.00
1:53 pm 13:53 Cloudy 42 5.6 14 -10 32 32 E 9 15 30.32 1027 10 16 0.00 0.00
2:53 pm 14:53 Cloudy 42 5.6 16 -8.9 35 35 ESE 9 15 30.29 1026 10 16 0.00 0.00
3:53 pm 15:53 Cloudy 43 6.1 18 -7.8 37 37 E 9 15 30.28 1025 10 16 0.00 0.00
4:53 pm 16:53 Cloudy 42 5.6 17 -8.3 36 36 E 12 19 30.28 1025 10 16 0.00 0.00
5:53 pm 17:53 Cloudy 42 5.6 16 -8.9 35 35 E 9 15 30.29 1026 10 16 0.00 0.00
6:53 pm 18:53 Cloudy 41 5 16 -8.9 36 36 ESE 10 17 30.29 1026 10 16 0.00 0.00
7:53 pm 19:53 Cloudy 41 5 15 -9.4 35 35 ESE 9 15 30.31 1026 10 16 0.00 0.00
8:19 pm 20:19 Cloudy 41 5 15 -9.4 35 35 ESE 8 13 30.35 1028 10 16 0.00 0.00
8:45 pm 20:45 Cloudy 41 5 16 -8.9 36 36 ESE 7 11 30.36 1028 10 16 0.00 0.00
8:53 pm 20:53 Cloudy 41 5 16 -8.9 36 36 ESE 8 13 30.31 1026 10 16 0.00 0.00
9:05 pm 21:05 Cloudy 41 5 15 -9.4 35 35 ESE 7 11 30.35 1028 10 16 0.00 0.00
9:53 pm 21:53 Cloudy 41 5 15 -9.4 35 35 E 7 11 30.28 1026 10 16 0.00 0.00
10:53 pm 22:53 Cloudy 41 5 15 -9.4 35 35 E 5 7 30.29 1026 10 16 0.00 0.00
11:53 pm 23:53 Cloudy 40 4.4 15 -9.4 36 36 E 5 7 30.29 1026 10 16 0.00 0.00

Powered by AerisWeather